EW1850 Weather Reports


Display with metric or nautical units.
time (UTC)temp
F
wind
direction
speed
MPH
gust
MPH
rain 1hr
in
rain 24hr
in
rain mn
in
humidity
%
barometer
mb
20260905233621 0 0 0.0 0.0 0.00 0.00 0.00 100
20260905232719 0 0 0.0 0.0 0.00 0.00 0.00 100
20260905225720 0 0 0.0 0.0 0.00 0.00 0.00 100
20260905224720 0 0 0.0 0.0 0.00 0.00 0.00 100
20260905223720 0 0 0.0 0.0 0.00 0.00 0.00 100
20260905222813 98 22 0.0 0.0 0.00 0.00 0.00 100 559.6
20260905221814 99 22 0.0 0.0 0.00 0.00 0.00 100 559.6
20260905220813 100 247 0.0 0.0 0.00 0.00 0.00 100 559.6
20260905215813 100 202 0.0 0.0 0.00 0.00 0.00 100 559.6
20260905214815 100 247 0.0 1.0 0.00 0.00 0.00 100 991.4
20260905214715 100 247 0.0 0.0 0.00 0.00 0.00 100 991.4
20260905213713 102 180 0.0 0.0 0.00 0.00 0.00 100 1023.6
20260905213616 102 180 0.0 1.0 0.00 0.00 0.00 100
20260905212615 102 279 0.0 2.0 0.00 0.00 0.00 100
20260905211713 102 315 0.0 0.0 0.00 0.00 0.00 100
20260905210712 101 202 0.0 0.0 0.00 0.00 0.00 100
20260905205715 101 337 0.0 2.0 0.00 0.00 0.00 100
20260905204812 101 292 0.0 0.0 0.00 0.00 0.00 100
20260905203813 101 315 0.0 3.0 0.00 0.00 0.00 100
20260905203715 101 326 2.0 7.0 0.00 0.00 0.00 100
20260905202714 101 302 0.0 1.0 0.00 0.00 0.00 100
20260905201812 101 299 1.0 9.0 0.00 0.00 0.00 100
20260905200813 101 202 0.0 3.0 0.00 0.00 0.00 100
20260905200714 101 225 3.0 6.0 0.00 0.00 0.00 100
20260905195813 101 206 0.0 1.0 0.00 0.00 0.00 100
20260905194815 101 248 0.0 4.0 0.00 0.00 0.00 100
20260905193813 100 226 0.0 4.0 0.00 0.00 0.00 100
20260905193712 100 263 0.0 4.0 0.00 0.00 0.00 100
20260905192712 100 202 0.0 2.0 0.00 0.00 0.00 100
20260905191812 100 202 0.0 1.0 0.00 0.00 0.00 100
20260905190813 100 225 1.0 4.0 0.00 0.00 0.00 100 1092.0
20260905185814 100 250 2.0 5.0 0.00 0.00 0.00 100
20260905183815 100 337 1.0 6.0 0.00 0.00 0.00 100 1089.6
20260905182815 101 241 1.0 4.0 0.00 0.00 0.00 100 1089.6
20260905175913 100 225 0.0 1.0 0.00 0.00 0.00 100 1094.1
20260905174914 99 160 3.0 6.0 0.00 0.00 0.00 100 1097.9
20260905173113 99 215 3.0 6.0 0.00 0.00 0.00 100
20260905172113 99 215 1.0 4.0 0.00 0.00 0.00 100
20260905170113 98 187 1.0 3.0 0.00 0.00 0.00 100
20260905165212 98 159 0.0 2.0 0.00 0.00 0.00 100
20260905164216 99 207 0.0 0.0 0.00 0.00 0.00 100
20260905163213 98 185 0.0 0.0 0.00 0.00 0.00 100
20260905162214 98 315 0.0 0.0 0.00 0.00 0.00 100
20260905161313 96 289 1.0 4.0 0.00 0.00 0.00 100
20260905160314 97 112 0.0 1.0 0.00 0.00 0.00 100
20260905160213 97 112 1.0 4.0 0.00 0.00 0.00 100
20260905155213 95 213 0.0 0.0 0.00 0.00 0.00 100
20260905155112 96 180 0.0 3.0 0.00 0.00 0.00 100
20260905154114 96 215 0.0 0.0 0.00 0.00 0.00 100
20260905153113 95 239 0.0 1.0 0.00 0.00 0.00 100 1042.1
20260905152116 95 274 1.0 6.0 0.00 0.00 0.00 100 979.8
20260905151212 94 135 0.0 1.0 0.00 0.00 0.00 100 672.7
20260905150213 91 45 0.0 0.0 0.00 0.00 0.00 100 559.6
20260905144213 91 45 0.0 1.0 0.00 0.00 0.00 100 559.6
20260905143214 90 17 0.0 3.0 0.00 0.00 0.00 100 559.6
20260905142216 88 22 0.0 0.0 0.00 0.00 0.00 100 559.6
20260905141214 86 44 0.0 1.0 0.00 0.00 0.00 100 559.6
20260905140214 85 33 0.0 1.0 0.00 0.00 0.00 100 559.6
20260905135313 84 45 0.0 1.0 0.00 0.00 0.00 100 559.6
20260905135214 84 45 0.0 0.0 0.00 0.00 0.00 100 559.6
20260905134213 0 0 0.0 0.0 0.00 0.00 0.00 100
20260905133212 0 0 0.0 0.0 0.00 0.00 0.00 100
20260905132213 0 0 0.0 0.0 0.00 0.00 0.00 100
20260905131214 0 0 0.0 0.0 0.00 0.00 0.00 100
20260905130313 0 0 0.0 0.0 0.00 0.00 0.00 100
20260905125315 0 0 0.0 0.0 0.00 0.00 0.00 100
20260905124314 0 0 0.0 0.0 0.00 0.00 0.00 100
20260905124215 0 0 0.0 0.0 0.00 0.00 0.00 100
20260905123214 0 0 0.0 0.0 0.00 0.00 0.00 100
20260905121313 0 0 0.0 0.0 0.00 0.00 0.00 100
20260905120314 0 0 0.0 0.0 0.00 0.00 0.00 100
20260905115313 0 0 0.0 0.0 0.00 0.00 0.00 100
20260905114314 0 0 0.0 0.0 0.00 0.00 0.00 100
20260905112428 0 0 0.0 0.0 0.00 0.00 0.00 100
20260905110414 0 0 0.0 0.0 0.00 0.00 0.00 100
20260905105414 0 0 0.0 0.0 0.00 0.00 0.00 100
20260905104513 0 0 0.0 0.0 0.00 0.00 0.00 100
20260905103516 0 0 0.0 0.0 0.00 0.00 0.00 100
20260905102612 0 0 0.0 0.0 0.00 0.00 0.00 100
20260905102513 0 0 0.0 0.0 0.00 0.00 0.00 100
20260905101514 0 0 0.0 0.0 0.00 0.00 0.00 100
20260905100512 0 0 0.0 0.0 0.00 0.00 0.00 100
20260905095512 0 0 0.0 0.0 0.00 0.00 0.00 100
20260905094513 0 0 0.0 0.0 0.00 0.00 0.00 100
20260905093513 0 0 0.0 0.0 0.00 0.00 0.00 100
20260905092516 0 0 0.0 0.0 0.00 0.00 0.00 100
20260905091514 0 0 0.0 0.0 0.00 0.00 0.00 100
20260905091412 0 0 0.0 0.0 0.00 0.00 0.00 100
20260905090414 0 0 0.0 0.0 0.00 0.00 0.00 100
20260905084413 0 0 0.0 0.0 0.00 0.00 0.00 100
20260905083512 0 0 0.0 0.0 0.00 0.00 0.00 100
20260905082516 0 0 0.0 0.0 0.00 0.00 0.00 100
20260905081514 0 0 0.0 0.0 0.00 0.00 0.00 100
20260905080514 0 0 0.0 0.0 0.00 0.00 0.00 100
20260905075515 0 0 0.0 0.0 0.00 0.00 0.00 100
20260905074514 0 0 0.0 0.0 0.00 0.00 0.00 100
20260905073516 0 0 0.0 0.0 0.00 0.00 0.00 100
20260905073414 0 0 0.0 0.0 0.00 0.00 0.00 100
20260905072414 0 0 0.0 0.0 0.00 0.00 0.00 100
20260905071415 0 0 0.0 0.0 0.00 0.00 0.00 100
20260905070413 0 0 0.0 0.0 0.00 0.00 0.00 100
20260905065414 0 0 0.0 0.0 0.00 0.00 0.00 100
20260905064415 0 0 0.0 0.0 0.00 0.00 0.00 100
20260905063513 0 0 0.0 0.0 0.00 0.00 0.00 100
20260905062513 0 0 0.0 0.0 0.00 0.00 0.00 100
20260905061515 0 0 0.0 0.0 0.00 0.00 0.00 100
20260905060513 0 0 0.0 0.0 0.00 0.00 0.00 100
20260905055514 0 0 0.0 0.0 0.00 0.00 0.00 100
20260905053613 0 0 0.0 0.0 0.00 0.00 0.00 100
20260905052614 0 0 0.0 0.0 0.00 0.00 0.00 100
20260905051614 0 0 0.0 0.0 0.00 0.00 0.00 100
20260905050614 0 0 0.0 0.0 0.00 0.00 0.00 100
20260905045710 0 0 0.0 0.0 0.00 0.00 0.00 100
20260905043708 0 0 0.0 0.0 0.00 0.00 0.00 100
20260905042707 0 0 0.0 0.0 0.00 0.00 0.00 100
20260905040710 0 0 0.0 0.0 0.00 0.00 0.00 100
20260905035808 0 0 0.0 0.0 0.00 0.00 0.00 100
20260905033810 0 0 0.0 0.0 0.00 0.00 0.00 100
20260905032807 0 0 0.0 0.0 0.00 0.00 0.00 100
20260905031810 0 0 0.0 0.0 0.00 0.00 0.00 100
20260905030809 0 0 0.0 0.0 0.00 0.00 0.00 100
20260905025907 0 0 0.0 0.0 0.00 0.00 0.00 100
20260905024907 0 0 0.0 0.0 0.00 0.00 0.00 100
20260905024808 0 0 0.0 0.0 0.00 0.00 0.00 100
20260905023807 0 0 0.0 0.0 0.00 0.00 0.00 100
20260905022808 0 0 0.0 0.0 0.00 0.00 0.00 100
20260905021807 0 0 0.0 0.0 0.00 0.00 0.00 100
20260905013832 82 202 0.0 0.0 0.00 0.00 0.00 100
20260905012930 83 202 0.0 0.0 0.00 0.00 0.00 100
20260905010931 83 202 0.0 0.0 0.00 0.00 0.00 100
20260905004932 85 202 0.0 0.0 0.00 0.00 0.00 100
20260905003931 85 202 0.0 0.0 0.00 0.00 0.00 100
20260905002933 85 202 0.0 0.0 0.00 0.00 0.00 100
20260905002030 86 202 0.0 0.0 0.00 0.00 0.00 100
20260905001031 86 202 0.0 0.0 0.00 0.00 0.00 100
20260905000032 87 202 0.0 0.0 0.00 0.00 0.00 100
20260904235033 87 202 0.0 0.0 0.00 0.00 0.00 100